Weather History for Corinth, MS

Change the Weather History Date:

Monday, November 19, 2012

  Actual Average Record
Temperature  
Mean Temperature 49 °F -  
Max Temperature 66 °F 65 °F 82 °F (1930)
Min Temperature 32 °F 40 °F 22 °F (1951)
Degree Days  
Heating Degree Days 16    
Moisture  
Dew Point 39 °F    
Average Humidity 69    
Maximum Humidity 100    
Minimum Humidity 40    
Precipitation  
Precipitation 0.00 in - - ()
Sea Level Pressure  
Sea Level Pressure 30.26 in    
Wind  
Wind Speed 1 mph (South)    
Max Wind Speed 7 mph    
Max Gust Speed -    
Visibility 10 miles    
Events      
Averages and records for this station are not official NWS values.
T = Trace of Precipitation, MM = Missing Value Source: NWS Daily Summary

Daily Weather History Graph

Daily Weather History Graph

Search for Another Location

Airport:

Trip Planner

Search our weather history database for the weather conditions in past years. The results will help you decide how hot, cold, wet, or windy it might be!

Date:

Astronomy

Nov. 19, 2012 Rise Set
Actual Time 6:33 AM CST 4:46 PM CST
Civil Twilight 6:05 AM CST 5:13 PM CST
Nautical Twilight 5:35 AM CST 5:44 PM CST
Astronomical Twilight 5:05 AM CST 6:14 PM CST
Moon 11:41 AM CST (11/19) 11:07 PM CST (11/19)
Length of Visible Light 11h 07m
Length of Day
10h 13m
Waxing Crescent, 41% of the Moon is Illuminated
Nov 19
Waxing Crescent
Nov 20
First Quarter
Nov 28
Full
Dec 6
Last Quarter
Dec 13
New

Hourly Weather History & Observations

Time (CST) Temp. Windchill Dew Point Humidity Pressure Visibility Wind Dir Wind Speed Gust Speed Precip Events Conditions
12:05 AM 35.6 °F - 32.0 °F 87% 30.33 in 10.0 mi Calm Calm - N/A   Clear
12:25 AM 33.8 °F - 32.0 °F 93% 30.33 in 10.0 mi Calm Calm - N/A   Clear
12:45 AM 33.8 °F - 32.0 °F 93% 30.32 in 10.0 mi Calm Calm - N/A   Clear
1:05 AM 33.8 °F - 32.0 °F 93% 30.32 in 10.0 mi Calm Calm - N/A   Clear
1:25 AM 33.8 °F - 32.0 °F 93% 30.32 in 10.0 mi Calm Calm - N/A   Clear
1:45 AM 32.0 °F 28.7 °F 32.0 °F 100% 30.31 in 10.0 mi WNW 3.5 mph - N/A   Clear
2:25 AM 32.0 °F - 32.0 °F 100% 30.31 in 10.0 mi Calm Calm - N/A   Clear
2:45 AM 32.0 °F - 30.2 °F 93% 30.31 in 10.0 mi Calm Calm - N/A   Clear
3:05 AM 32.0 °F - 32.0 °F 100% 30.31 in 10.0 mi Calm Calm - N/A   Clear
3:25 AM 32.0 °F - 32.0 °F 100% 30.31 in 10.0 mi Calm Calm - N/A   Clear
3:45 AM 32.0 °F - 32.0 °F 100% 30.31 in 10.0 mi Calm Calm - N/A   Clear
4:05 AM 32.0 °F - 32.0 °F 100% 30.31 in 10.0 mi Calm Calm - N/A   Clear
8:40 AM 41.0 °F - 35.6 °F 81% 30.34 in 10.0 mi Calm Calm - N/A   Clear
9:00 AM 46.4 °F - 37.4 °F 71% 30.34 in 10.0 mi Calm Calm - N/A   Clear
9:25 AM 50.0 °F - 39.2 °F 66% 30.34 in 10.0 mi SE 3.5 mph - N/A   Clear
9:45 AM 53.6 °F - 39.2 °F 58% 30.34 in 10.0 mi SE 4.6 mph - N/A   Clear
10:05 AM 55.4 °F - 39.2 °F 54% 30.34 in 10.0 mi SE 3.5 mph - N/A   Clear
10:25 AM 59.0 °F - 39.2 °F 48% 30.33 in 10.0 mi SE 3.5 mph - N/A   Clear
10:45 AM 59.0 °F - 39.2 °F 48% 30.32 in 10.0 mi SE 3.5 mph - N/A   Clear
11:05 AM 60.8 °F - 39.2 °F 45% 30.31 in 10.0 mi ESE 3.5 mph - N/A   Clear
11:25 AM 62.6 °F - 39.2 °F 42% 30.30 in 10.0 mi Calm Calm - N/A   Clear
12:05 PM 64.4 °F - 41.0 °F 42% 30.28 in 10.0 mi Calm Calm - N/A   Clear
12:25 PM 64.4 °F - 41.0 °F 42% 30.28 in 10.0 mi Calm Calm - N/A   Clear
12:45 PM 64.4 °F - 41.0 °F 42% 30.27 in 10.0 mi Calm Calm - N/A   Clear
1:05 PM 64.4 °F - 41.0 °F 42% 30.26 in 10.0 mi Calm Calm - N/A   Clear
1:25 PM 66.2 °F - 41.0 °F 40% 30.25 in 10.0 mi South 3.5 mph - N/A   Clear
1:45 PM 66.2 °F - 41.0 °F 40% 30.24 in 10.0 mi SE 4.6 mph - N/A   Clear
2:05 PM 64.4 °F - 41.0 °F 42% 30.23 in 10.0 mi South 4.6 mph - N/A   Clear
2:25 PM 66.2 °F - 41.0 °F 40% 30.22 in 10.0 mi SSW 3.5 mph - N/A   Clear
2:45 PM 66.2 °F - 41.0 °F 40% 30.21 in 10.0 mi South 5.8 mph - N/A   Clear
3:05 PM 64.4 °F - 41.0 °F 42% 30.21 in 10.0 mi SSE 5.8 mph - N/A   Clear
3:25 PM 64.4 °F - 41.0 °F 42% 30.21 in 10.0 mi South 3.5 mph - N/A   Clear
3:45 PM 64.4 °F - 41.0 °F 42% 30.21 in 10.0 mi South 6.9 mph - N/A   Clear
4:05 PM 62.6 °F - 41.0 °F 45% 30.21 in 10.0 mi SSW 3.5 mph - N/A   Clear
4:25 PM 62.6 °F - 41.0 °F 45% 30.21 in 10.0 mi SW 3.5 mph - N/A   Clear
4:45 PM 60.8 °F - 41.0 °F 48% 30.20 in 10.0 mi SSW 3.5 mph - N/A   Clear
5:05 PM 53.6 °F - 41.0 °F 62% 30.20 in 10.0 mi Calm Calm - N/A   Clear
5:25 PM 55.4 °F - 41.0 °F 58% 30.21 in 10.0 mi Calm Calm - N/A   Partly Cloudy
5:45 PM 50.0 °F - 41.0 °F 71% 30.22 in 10.0 mi Calm Calm - N/A   Partly Cloudy
6:05 PM 50.0 °F - 41.0 °F 71% 30.22 in 10.0 mi Calm Calm - N/A   Clear
6:25 PM 50.0 °F - 41.0 °F 71% 30.22 in 10.0 mi Calm Calm - N/A   Clear
6:45 PM 50.0 °F - 41.0 °F 71% 30.23 in 10.0 mi Calm Calm - N/A   Clear
7:05 PM 50.0 °F - 41.0 °F 71% 30.23 in 10.0 mi Calm Calm - N/A   Clear
7:25 PM 48.2 °F - 41.0 °F 76% 30.22 in 10.0 mi Calm Calm - N/A   Clear
7:45 PM 50.0 °F - 41.0 °F 71% 30.22 in 9.0 mi Calm Calm - N/A   Clear
8:05 PM 46.4 °F - 41.0 °F 81% 30.22 in 10.0 mi Calm Calm - N/A   Clear
8:25 PM 48.2 °F - 41.0 °F 76% 30.21 in 10.0 mi SSE 3.5 mph - N/A   Clear
8:45 PM 44.6 °F - 41.0 °F 87% 30.21 in 10.0 mi Calm Calm - N/A   Clear
9:05 PM 46.4 °F - 41.0 °F 81% 30.22 in 10.0 mi Calm Calm - N/A   Clear
9:25 PM 44.6 °F - 41.0 °F 87% 30.22 in 10.0 mi Calm Calm - N/A   Clear
9:45 PM 44.6 °F - 41.0 °F 87% 30.21 in 10.0 mi Calm Calm - N/A   Clear
10:05 PM 42.8 °F - 39.2 °F 87% 30.20 in 10.0 mi Calm Calm - N/A   Clear
10:25 PM 42.8 °F 41.1 °F 39.2 °F 87% 30.20 in 10.0 mi West 3.5 mph - N/A   Clear
10:45 PM 41.0 °F - 39.2 °F 93% 30.20 in 10.0 mi Calm Calm - N/A   Clear
11:05 PM 41.0 °F - 39.2 °F 93% 30.21 in 10.0 mi Calm Calm - N/A   Clear
11:25 PM 41.0 °F - 39.2 °F 93% 30.21 in 10.0 mi Calm Calm - N/A   Clear
11:45 PM 42.8 °F 41.1 °F 39.2 °F 87% 30.19 in 10.0 mi SSE 3.5 mph - N/A   Clear